sat.trackr.live / text

‹ back to catalog

GEESAT-2 06

NORAD 58910 · 2024-023F

PAYLOAD ACTIVE UNKNOWN

§ Identity

Operator
Country
PRC
Launch date
2024-02-02
Launch site
XICLF
Launch vehicle
Mass (kg)
RCS (m²)

External: N2YO · Heavens-Above · Gunter

§ Orbital elements

Epoch: 2026-09-22T21:01:35.434848Z

Period
95.69 min
Inclination
49.9875°
Eccentricity
0.0005888
Mean motion
15.04934020 rev/d
Perigee alt
547.6 km
Apogee alt
555.8 km
Semi-major
6,929.8 km
B*
2.8983e-4
RAAN
191.8682°
Arg perigee
79.5309°
Mean anomaly
280.6302°
Rev number
14,435

§ Raw data

GEESAT-2 061 58910U 24023F   26265.87610457  .00003884  00000+0  28983-3 0  99982 58910  49.9875 191.8682 0005888  79.5309 280.6302 15.04934020144350

JSON: /api/v1/satellites/58910 · /tle

For live sub-satellite position, see the globe view (requires WebGL).

§ Visibility from observer

Set your observer location to see the next 7 days of passes ≥ 10°. The values pass through the URL so the page stays shareable.

No JS? Fill the form by hand. The geolocation button needs JavaScript.